WA8SIE Weather Reports


time (UTC)temp
C
wind
direction
speed
KPH
gust
KPH
rain 1hr
cm
rain 24hr
cm
rain mn
cm
humidity
%
barometer
mb
20260904104011 22 216 0.0 0.0 0.00 0.00 0.00 100 1010.8
20260904103511 23 216 0.0 0.0 0.00 0.00 0.00 100 1010.8
20260904103011 23 216 0.0 0.0 0.00 0.00 0.00 100 1010.8
20260904102510 23 216 0.0 0.0 0.00 0.00 0.00 100 1010.8
20260904102010 23 216 0.0 0.0 0.00 0.00 0.00 100 1010.8
20260904101510 23 216 0.0 1.6 0.00 0.00 0.00 100 1010.8
20260904101011 23 215 0.0 0.0 0.00 0.00 0.00 100 1010.7
20260904100510 23 216 0.0 0.0 0.00 0.00 0.00 100 1010.7
20260904100011 23 216 0.0 0.0 0.00 0.00 0.00 100 1010.7
20260904095512 23 216 0.0 0.0 0.00 0.00 0.00 100 1010.7
20260904095011 23 216 0.0 0.0 0.00 0.00 0.00 100 1010.7
20260904094511 23 216 0.0 0.0 0.00 0.00 0.00 100 1010.7
20260904093011 23 216 0.0 0.0 0.00 0.00 0.00 100 1010.6
20260904092512 23 216 0.0 0.0 0.00 0.00 0.00 100 1010.3
20260904092011 23 216 0.0 0.0 0.00 0.00 0.00 100 1010.3
20260904091511 23 216 0.0 0.0 0.00 0.00 0.00 100 1010.3
20260904091011 23 216 0.0 0.0 0.00 0.00 0.00 100 1010.2
20260904090511 23 216 0.0 0.0 0.00 0.00 0.00 100 1010.2
20260904090011 23 216 0.0 0.0 0.00 0.00 0.00 100 1010.2
20260904085511 23 216 0.0 0.0 0.00 0.00 0.00 100 1010.1
20260904085011 23 216 0.0 0.0 0.00 0.00 0.00 100 1010.1
20260904084510 23 216 0.0 0.0 0.00 0.00 0.00 100 1010.1
20260904084011 23 216 0.0 0.0 0.00 0.00 0.00 100 1010.0
20260904083510 23 216 1.6 3.2 0.00 0.00 0.00 100 1010.0
20260904083010 23 216 0.0 0.0 0.00 0.00 0.00 100 1010.0
20260904082510 23 216 0.0 0.0 0.00 0.00 0.00 100 1010.0
20260904082012 23 216 0.0 0.0 0.00 0.00 0.00 100 1010.0
20260904081510 23 216 0.0 0.0 0.00 0.00 0.00 100 1010.0
20260904081012 23 216 1.6 4.8 0.00 0.00 0.00 100 1010.1
20260904080510 23 216 0.0 0.0 0.00 0.00 0.00 100 1010.1
20260904074010 23 216 0.0 0.0 0.00 0.00 0.00 100 1010.1
20260904073510 23 216 0.0 0.0 0.00 0.00 0.00 100 1010.1
20260904073011 23 216 0.0 0.0 0.00 0.00 0.00 100 1010.1
20260904071510 23 216 0.0 0.0 0.00 0.00 0.00 100 1010.1
20260904071013 23 216 0.0 0.0 0.00 0.00 0.00 100 1010.0
20260904070511 24 216 0.0 0.0 0.00 0.00 0.00 100 1010.0
20260904070011 24 216 0.0 0.0 0.00 0.00 0.00 100 1010.0
20260904065012 23 216 0.0 0.0 0.00 0.00 0.00 100 1010.1
20260904064511 24 216 0.0 0.0 0.00 0.00 0.00 100 1010.1
20260904064013 24 216 0.0 0.0 0.00 0.00 0.00 100 1010.2
20260904063511 24 216 0.0 0.0 0.00 0.00 0.00 100 1010.2
20260904062511 24 216 0.0 0.0 0.00 0.00 0.00 100 1010.3
20260904062011 24 215 0.0 0.0 0.00 0.00 0.00 100 1010.3
20260904061511 24 216 0.0 0.0 0.00 0.00 0.00 100 1010.3
20260904061011 24 216 0.0 0.0 0.00 0.00 0.00 100 1010.5
20260904060511 24 216 0.0 0.0 0.00 0.00 0.00 100 1010.5
20260904060011 24 216 0.0 0.0 0.00 0.00 0.00 100 1010.5
20260904055511 24 216 0.0 0.0 0.00 0.00 0.00 100 1010.5
20260904055013 24 215 0.0 0.0 0.00 0.00 0.00 100 1010.5
20260904054511 24 216 0.0 0.0 0.00 0.00 0.00 100 1010.5
20260904054011 25 216 0.0 0.0 0.00 0.00 0.00 100 1010.6
20260904053511 25 216 0.0 0.0 0.00 0.00 0.00 100 1010.6
20260904052511 25 216 0.0 0.0 0.00 0.00 0.00 99 1010.5
20260904052011 25 216 0.0 0.0 0.00 0.00 0.00 99 1010.5
20260904051513 25 215 0.0 0.0 0.00 0.00 0.00 99 1010.5
20260904051011 25 216 0.0 0.0 0.00 0.00 0.00 99 1010.6
20260904050511 25 216 0.0 0.0 0.00 0.00 0.00 99 1010.6
20260904050011 25 216 0.0 0.0 0.00 0.00 0.00 99 1010.6
20260904045513 25 216 0.0 0.0 0.00 0.00 0.00 99 1010.6
20260904045011 25 216 0.0 0.0 0.00 0.00 0.00 99 1010.6
20260904044511 25 216 0.0 0.0 0.00 0.00 0.00 99 1010.6
20260904043511 25 216 0.0 0.0 0.00 0.00 0.00 98 1010.5
20260904043011 25 216 0.0 0.0 0.00 0.00 0.00 98 1010.5
20260904042511 25 216 0.0 0.0 0.00 0.00 0.00 98 1010.5
20260904042011 25 216 0.0 0.0 0.00 0.00 0.00 98 1010.5
20260904041511 25 216 0.0 0.0 0.00 0.00 0.00 98 1010.5
20260904035511 25 216 0.0 0.0 0.00 0.00 0.00 97 1010.6
20260904035011 25 216 0.0 0.0 0.00 0.00 0.00 97 1010.6
20260904034511 25 216 0.0 0.0 0.00 0.00 0.00 97 1010.6
20260904034011 25 216 0.0 0.0 0.00 0.00 0.00 97 1010.5
20260904033511 26 216 0.0 3.2 0.00 0.00 0.00 97 1010.5
20260904033011 26 216 1.6 0.0 0.00 0.00 0.00 97 1010.5
20260904032512 26 216 0.0 0.0 0.00 0.00 0.00 96 1010.6
20260904031511 26 216 0.0 0.0 0.00 0.00 0.00 96 1010.6
20260904031011 26 216 0.0 0.0 0.00 0.00 0.00 95 1010.7
20260904030511 26 216 0.0 0.0 0.00 0.00 0.00 95 1010.7
20260904030011 26 216 0.0 0.0 0.00 0.00 0.00 95 1010.7
20260904025513 26 216 0.0 0.0 0.00 0.00 0.00 95 1010.7
20260904025011 26 215 0.0 0.0 0.00 0.00 0.00 95 1010.7
20260904024510 26 216 0.0 1.6 0.00 0.00 0.00 95 1010.7
20260904023011 26 215 0.0 0.0 0.00 0.00 0.00 94 1010.7
20260904022510 26 216 0.0 0.0 0.00 0.00 0.00 93 1010.7
20260904022011 26 216 0.0 0.0 0.00 0.00 0.00 93 1010.7
20260904021511 26 216 0.0 0.0 0.00 0.00 0.00 93 1010.7
20260904021010 26 216 0.0 0.0 0.00 0.00 0.00 92 1010.7
20260904020511 26 216 0.0 0.0 0.00 0.00 0.00 92 1010.7
20260904020012 27 216 0.0 0.0 0.00 0.00 0.00 92 1010.7
20260904015511 27 216 0.0 3.2 0.00 0.00 0.00 92 1010.7
20260904015011 27 216 1.6 0.0 0.00 0.00 0.00 91 1010.7
20260904014511 27 217 0.0 0.0 0.00 0.00 0.00 90 1010.7
20260904014011 27 217 0.0 0.0 0.00 0.00 0.00 90 1010.4
20260904013510 27 216 0.0 0.0 0.00 0.00 0.00 89 1010.4
20260904012511 27 217 0.0 0.0 0.00 0.00 0.00 88 1010.4
20260904011512 27 216 0.0 0.0 0.00 0.00 0.00 88 1010.4
20260904011011 27 216 0.0 0.0 0.00 0.00 0.00 87 1010.3
20260904010511 27 216 0.0 0.0 0.00 0.00 0.00 87 1010.3
20260904005511 28 216 0.0 0.0 0.00 0.00 0.00 87 1010.4
20260904005010 28 216 0.0 0.0 0.00 0.00 0.00 86 1010.4
20260904004512 28 216 0.0 0.0 0.00 0.00 0.00 85 1010.4
20260904004010 28 216 0.0 3.2 0.00 0.00 0.00 85 1010.2
20260904003510 28 216 0.0 0.0 0.00 0.00 0.00 84 1010.2
20260904003010 28 216 0.0 0.0 0.00 0.00 0.00 83 1010.2
20260904002510 28 216 0.0 0.0 0.00 0.00 0.00 82 1009.8
20260904001512 28 217 0.0 0.0 0.00 0.00 0.00 80 1009.8
20260904001011 29 217 0.0 0.0 0.00 0.00 0.00 80 1009.9
20260904000510 29 216 0.0 0.0 0.00 0.00 0.00 79 1009.9
20260903235510 30 216 0.0 0.0 0.00 0.00 0.00 77 1010.0
20260903235010 30 216 0.0 0.0 0.00 0.00 0.00 77 1010.0
20260903234010 30 216 0.0 0.0 0.00 0.00 0.00 73 1009.8
20260903233510 30 216 0.0 0.0 0.00 0.00 0.00 72 1009.8
20260903233010 30 217 0.0 0.0 0.00 0.00 0.00 71 1009.8
20260903232510 31 216 0.0 0.0 0.00 0.00 0.00 69 1009.7
20260903231510 31 216 0.0 0.0 0.00 0.00 0.00 68 1009.7
20260903231010 31 216 0.0 0.0 0.00 0.00 0.00 66 1009.6
20260903230510 32 216 0.0 0.0 0.00 0.00 0.00 66 1009.6
20260903230010 32 216 0.0 0.0 0.00 0.00 0.00 65 1009.6
20260903225512 32 216 0.0 0.0 0.00 0.00 0.00 64 1009.4
20260903225012 32 217 0.0 0.0 0.00 0.00 0.00 63 1009.4
20260903224511 32 216 0.0 0.0 0.00 0.00 0.00 64 1009.4
20260903223010 33 216 0.0 0.0 0.00 0.00 0.00 61 1009.2
20260903222012 33 216 0.0 0.0 0.00 0.00 0.00 57 1009.0
20260903220513 33 195 3.2 0.0 0.00 0.00 0.00 55 1009.0
20260903220011 33 198 0.0 0.0 0.00 0.00 0.00 54 1009.0
20260903215511 33 194 0.0 0.0 0.00 0.00 0.00 54 1008.9
20260903214013 33 203 1.6 0.0 0.00 0.00 0.00 51 1009.1
20260903213511 33 191 0.0 0.0 0.00 0.00 0.00 52 1009.1
20260903213011 33 191 4.8 0.0 0.00 0.00 0.00 51 1009.1
20260903212011 33 195 0.0 8.0 0.00 0.00 0.00 50 1009.2
20260903211513 33 196 0.0 0.0 0.00 0.00 0.00 51 1009.2
20260903211011 34 196 0.0 0.0 0.00 0.00 0.00 51 1009.6
20260903210511 34 196 0.0 0.0 0.00 0.00 0.00 50 1009.6
20260903210011 34 196 0.0 0.0 0.00 0.00 0.00 50 1009.6
20260903205011 34 188 0.0 0.0 0.00 0.00 0.00 50 1009.8
20260903204511 34 188 0.0 0.0 0.00 0.00 0.00 49 1009.8
20260903204013 34 174 0.0 0.0 0.00 0.00 0.00 49 1009.8
20260903203513 34 165 0.0 0.0 0.00 0.00 0.00 53 1009.8
20260903203011 34 207 0.0 8.0 0.00 0.00 0.00 52 1009.8
20260903202511 34 206 0.0 0.0 0.00 0.00 0.00 51 1010.0
20260903202011 34 186 0.0 0.0 0.00 0.00 0.00 51 1010.0
20260903201512 34 197 6.4 0.0 0.00 0.00 0.00 50 1010.0
20260903201011 34 267 0.0 0.0 0.00 0.00 0.00 51 1010.2
20260903200513 34 267 0.0 0.0 0.00 0.00 0.00 52 1010.2
20260903200011 34 267 0.0 0.0 0.00 0.00 0.00 52 1010.2
20260903195512 34 267 0.0 0.0 0.00 0.00 0.00 55 1010.3
20260903195011 34 268 0.0 0.0 0.00 0.00 0.00 53 1010.3
20260903194512 34 178 0.0 0.0 0.00 0.00 0.00 53 1010.3
20260903194011 34 179 0.0 3.2 0.00 0.00 0.00 51 1010.5
20260903193511 34 179 0.0 0.0 0.00 0.00 0.00 53 1010.5
20260903192511 34 179 0.0 0.0 0.00 0.00 0.00 48 1010.6
20260903192011 35 193 6.4 0.0 0.00 0.00 0.00 47 1010.6
20260903191011 35 355 0.0 0.0 0.00 0.00 0.00 50 1010.9
20260903190511 35 355 0.0 0.0 0.00 0.00 0.00 47 1010.9
20260903190011 35 290 0.0 0.0 0.00 0.00 0.00 49 1010.9
20260903185511 36 122 0.0 0.0 0.00 0.00 0.00 49 1011.0
20260903184511 35 200 0.0 0.0 0.00 0.00 0.00 48 1011.0
20260903183510 35 200 4.8 0.0 0.00 0.00 0.00 50 1011.1
20260903183010 35 296 0.0 0.0 0.00 0.00 0.00 51 1011.1
20260903182511 34 311 0.0 6.4 0.00 0.00 0.00 53 1011.3
20260903182010 34 309 0.0 0.0 0.00 0.00 0.00 52 1011.3
20260903181511 34 309 0.0 0.0 0.00 0.00 0.00 53 1011.3
20260903180011 35 292 0.0 9.7 0.00 0.00 0.00 50 1011.4
20260903175511 35 16 0.0 0.0 0.00 0.00 0.00 51 1011.5
20260903175010 35 222 1.6 0.0 0.00 0.00 0.00 51 1011.5
20260903174511 35 47 0.0 0.0 0.00 0.00 0.00 50 1011.5
20260903174011 35 293 0.0 0.0 0.00 0.00 0.00 51 1011.7
20260903173011 35 297 0.0 0.0 0.00 0.00 0.00 51 1011.7
20260903172511 35 326 0.0 0.0 0.00 0.00 0.00 51 1011.7
20260903172011 34 262 0.0 0.0 0.00 0.00 0.00 53 1011.7
20260903171511 34 226 0.0 0.0 0.00 0.00 0.00 53 1011.7
20260903171010 34 250 0.0 8.0 0.00 0.00 0.00 56 1011.8
20260903170011 33 1 0.0 0.0 0.00 0.00 0.00 53 1011.8
20260903165012 34 198 0.0 0.0 0.00 0.00 0.00 56 1012.2
20260903164512 33 201 0.0 6.4 0.00 0.00 0.00 57 1012.2
20260903163510 33 172 0.0 0.0 0.00 0.00 0.00 55 1012.3
20260903163010 33 188 4.8 0.0 0.00 0.00 0.00 56 1012.3
20260903162510 33 188 0.0 0.0 0.00 0.00 0.00 58 1012.3
20260903161510 33 188 0.0 0.0 0.00 0.00 0.00 60 1012.3
20260903161010 33 189 0.0 0.0 0.00 0.00 0.00 59 1012.3
20260903160512 32 188 0.0 0.0 0.00 0.00 0.00 61 1012.3
20260903160010 32 189 0.0 0.0 0.00 0.00 0.00 62 1012.3
20260903155010 32 188 0.0 0.0 0.00 0.00 0.00 63 1012.4
20260903154510 32 133 0.0 0.0 0.00 0.00 0.00 62 1012.4
20260903154012 32 207 3.2 0.0 0.00 0.00 0.00 63 1012.5
20260903153512 32 207 0.0 0.0 0.00 0.00 0.00 65 1012.5
20260903153011 32 207 0.0 3.2 0.00 0.00 0.00 66 1012.5
20260903152512 31 207 0.0 0.0 0.00 0.00 0.00 64 1012.7
20260903152010 31 300 0.0 0.0 0.00 0.00 0.00 66 1012.7
20260903151510 31 300 0.0 0.0 0.00 0.00 0.00 67 1012.7
20260903151012 31 191 0.0 0.0 0.00 0.00 0.00 68 1012.6
20260903150510 30 191 0.0 6.4 0.00 0.00 0.00 68 1012.6
20260903150010 30 191 0.0 0.0 0.00 0.00 0.00 67 1012.6
20260903145510 30 307 0.0 0.0 0.00 0.00 0.00 69 1012.7
20260903145010 30 309 0.0 0.0 0.00 0.00 0.00 68 1012.7
20260903144010 30 319 0.0 4.8 0.00 0.00 0.00 70 1012.8
20260903143510 30 319 0.0 0.0 0.00 0.00 0.00 70 1012.8
20260903143011 30 200 0.0 0.0 0.00 0.00 0.00 72 1012.8
20260903142011 29 200 0.0 0.0 0.00 0.00 0.00 73 1012.7
20260903141511 28 200 0.0 4.8 0.00 0.00 0.00 74 1012.7
20260903141013 28 200 0.0 0.0 0.00 0.00 0.00 75 1012.7
20260903140511 28 200 1.6 0.0 0.00 0.00 0.00 75 1012.7
20260903140011 28 123 0.0 0.0 0.00 0.00 0.00 78 1012.7
20260903135511 28 123 0.0 0.0 0.00 0.00 0.00 78 1012.8
20260903135011 28 124 0.0 0.0 0.00 0.00 0.00 79 1012.8
20260903134511 27 124 0.0 0.0 0.00 0.00 0.00 83 1012.8
20260903133511 27 124 0.0 0.0 0.00 0.00 0.00 82 1012.9
20260903133011 27 124 0.0 0.0 0.00 0.00 0.00 84 1012.9
20260903132513 26 123 0.0 0.0 0.00 0.00 0.00 86 1013.2
20260903131511 25 123 0.0 0.0 0.00 0.00 0.00 89 1013.2
20260903131013 25 124 3.2 0.0 0.00 0.00 0.00 90 1013.3
20260903130513 25 124 0.0 0.0 0.00 0.00 0.00 91 1013.3
20260903130011 25 123 0.0 3.2 0.00 0.00 0.00 93 1013.3
20260903125511 24 124 0.0 0.0 0.00 0.00 0.00 94 1013.3
20260903125012 24 124 0.0 0.0 0.00 0.00 0.00 95 1013.3
20260903124511 24 123 0.0 0.0 0.00 0.00 0.00 98 1013.3
20260903123511 23 198 0.0 0.0 0.00 0.00 0.00 100 1013.4
20260903123011 23 199 0.0 0.0 0.00 0.00 0.00 100 1013.4
20260903122511 23 199 0.0 0.0 0.00 0.00 0.00 100 1013.4
20260903122011 23 199 0.0 0.0 0.00 0.00 0.00 100 1013.4
20260903121511 23 199 0.0 0.0 0.00 0.00 0.00 100 1013.4
20260903121011 22 198 0.0 0.0 0.00 0.00 0.00 100 1013.3
20260903120511 22 198 0.0 0.0 0.00 0.00 0.00 100 1013.3
20260903120011 22 198 0.0 1.6 0.00 0.00 0.00 100 1013.3
20260903115512 22 198 0.0 1.6 0.00 0.00 0.00 100 1013.3
20260903115011 22 199 0.0 3.2 0.00 0.00 0.00 100 1013.3
20260903114511 22 199 0.0 3.2 0.00 0.00 0.00 100 1013.3
20260903114013 22 199 1.6 3.2 0.00 0.00 0.00 100 1013.2
20260903113511 22 198 0.0 0.0 0.00 0.00 0.00 100 1013.2
20260903113011 22 198 0.0 0.0 0.00 0.00 0.00 100 1013.2
20260903112511 22 198 0.0 0.0 0.00 0.00 0.00 100 1013.0
20260903112010 22 198 0.0 0.0 0.00 0.00 0.00 100 1013.0
20260903111511 22 198 0.0 0.0 0.00 0.00 0.00 100 1013.0
20260903111011 22 198 0.0 0.0 0.00 0.00 0.00 100 1012.8
20260903110511 22 199 0.0 0.0 0.00 0.00 0.00 100 1012.8
20260903110012 22 198 0.0 0.0 0.00 0.00 0.00 100 1012.8
20260903105512 22 199 0.0 0.0 0.00 0.00 0.00 100 1012.6
20260903105011 22 199 0.0 3.2 0.00 0.00 0.00 100 1012.6